OBJECT A, 62725

Orbit data source: Space-Track

You're viewing an Uncataloged Satellite

Recently launched and/or uncataloged satellites may have evolving metadata. Metadata may include but not limited to: Owner, Maufacturer, Bus, Motor, and Mission.

OBJECT A, 62725 is a Chinese satellite in SSO that was launched on Fri, 17 Jan 2025 UTC via a CHANG ZHENG 2D launch vehicle from the Jiuquan Satellite Launch Center, China (JSC). Unknown objects in Earth's orbit typically refer to objects detected orbiting the Earth but have not yet been identified or cataloged. These objects could be anything from previously untracked satellites, spent rocket stages, debris from satellite collisions, or even natural meteoroids temporarily captured by Earth's gravity.

Loading next visibility...
Identifier
62725, 2025-012A
Orbit
SSO
Country
Flag of CNCN / PRC
Related business
None
Manufacturer
Unknown
Mission
Operational Civil Imaging
Bus & Motor
Unknown
Mass
Unknown
Launch date (UTC)
2025-01-17 (11 months ago)
Launch vehicle
CHANG ZHENG 2D
Launch site
Jiuquan Satellite Launch Center, China (JSC)
Object type
Unknown
Shape & HBR
Box + 2 Pan, 2.0 m
Radar Cross Section
6.755 m², Large (>1 m²)

Expand to show TLE details & history
Last TLE update: 21 hours ago

TLE from 21 hours ago
0 OBJECT A
1 62725U 25012A   25353.26404110  .00002738  00000-0  13924-3 0  9990
2 62725  97.4451  64.0438 0007374 164.6654 195.4804 15.17666897 50903
Epoch: 2025-12-19T06:20Z
TLE epoch observation values (Epoch: 2025-12-19T06:20:13.151Z)
Latitude
-0.00005°
Longitude
-119.11868°
Altitude
520.878 km
Speed
7.6 km/s
True Right ascension
04h 16m 10s
True Declination
0° 00' 00"
Sunlit
Object was in full shadow at epoch
Visualization orbit readout
Latitude
Unknown
Longitude
Unknown
Altitude
Unknown
Speed
Unknown
Apparent Right ascension
Unknown
Apparent Declination
Unknown
Sunlit
N/A
Visualization observer readout
Local Sidereal Time
02:03:58
Azimuth
Unknown
Elevation
Unknown
Doppler factor
Unknown
Orbital elements
Apogee altitude
514.944 km
Perigee altitude
504.785 km
Semi-major axis
6,888.002 km
Eccentricity
0.00074
Inclination
97.4451°
RAAN
64.0438°
Arg. of periapsis
164.6654°
True anomaly
195.45787°
Mean anomaly
195.4804°
Eccentric anomaly
195.46913°
Mean motion
3.79667 °/min
Orbital period
94.82 mins
BSTAR
0.00013924
Loading maneuver chart data...
Computing Atmospheric mass density...
Loading historical data...
Loading historical data...
Loading historical data...
Loading historical data...
Loading historical data...
Loading historical data...
Loading historical data...
Other satellites on launch #12 in the year 2025 (2025-01-17 UTC)

Documentation

Showing up to 5 results
|